Temp
14 14 15 15 15 15 15 16 16 16 17 17 18 18 18 19 19 20 21 23 23 23 22 22 22 23 24 24 26 26 26 26 28 29 30 31 31 30 30 29 28 28 27 26 24
13 13 14 14 15 15 15 15 15 16 16 16 17 18 18 18 19 21 22 22 22 23 22 22 22 24 25 25 26 27 26 27 29 30 30 30 30 29 29 29 29 28 27 25 24
13 13 13 13 14 14 15 15 15 15 16 16 17 18 18 17 18 23 24 23 23 22 23 23 24 24 25 26 26 27 27 28 29 29 29 29 29 29 30 29 29 28 28 25 24
11 12 13 13 13 13 14 14 15 15 15 16 16 17 17 17 22 23 23 23 23 22 21 23 24 25 26 26 27 27 28 29 29 29 28 29 29 29 29 29 29 28 27 26 24
8 10 11 10 11 13 13 14 14 15 15 15 15 16 16 17 19 21 21 21 22 21 20 22 24 25 26 27 27 28 29 29 29 28 28 28 29 29 29 29 28 28 27 26 25
4 4 5 7 10 11 12 13 13 14 14 14 15 15 14 16 20 21 21 21 21 21 21 22 24 25 26 27 28 28 29 29 28 28 29 29 29 29 29 28 28 27 27 26 26
4 4 4 4 5 9 10 11 13 13 14 15 14 14 12 16 20 21 22 22 20 20 21 22 22 24 26 27 27 28 28 29 29 29 29 29 28 28 28 28 28 27 27 26 25
4 4 4 4 4 5 8 10 11 13 13 14 13 12 12 16 20 21 21 21 22 22 23 23 24 24 25 26 27 27 27 27 29 29 29 29 26 29 28 29 28 28 27 26 25
3 4 4 4 4 4 5 8 10 11 12 12 12 12 15 18 19 22 21 21 23 23 23 23 24 24 25 25 25 26 26 26 28 30 30 30 27 29 28 29 28 28 27 27 26
4 3 3 3 4 4 5 7 11 10 12 10 11 13 15 18 19 20 20 22 22 22 23 23 24 25 25 25 23 25 26 27 27 29 30 29 28 29 29 29 29 28 28 27 26
4 4 3 3 3 3 4 6 11 10 9 14 16 17 21 21 21 21 22 21 22 23 23 23 23 23 24 25 26 27 27 28 29 31 28 28 28 29 29 29 29 28 28 27 26
3 4 3 3 3 3 3 5 12 11 13 13 15 17 18 21 22 22 23 22 22 22 24 24 23 24 26 26 26 26 27 27 29 30 30 29 29 29 29 29 28 28 28 28 25
3 3 3 3 3 3 3 6 8 11 13 15 16 16 17 19 21 22 22 23 23 22 23 23 24 26 26 26 26 27 26 27 28 29 29 29 27 28 29 29 29 29 28 27 24
3 3 3 3 4 5 7 9 9 11 13 17 19 19 19 19 21 22 23 23 24 23 24 25 26 26 26 27 27 26 28 28 28 27 26 28 25 27 28 29 30 29 28 27 24
3 3 3 2 4 5 7 9 10 11 13 24 22 22 21 21 23 22 23 24 23 24 24 24 26 26 27 27 28 28 29 29 28 27 26 26 25 27 29 28 29 29 28 27 25
3 3 3 3 3 4 6 7 9 11 14 22 27 24 23 22 22 26 23 24 24 25 26 26 28 28 28 29 29 30 29 28 28 27 24 26 25 26 28 29 29 29 29 27 25
3 3 3 2 4 5 6 7 10 12 20 23 25 24 23 23 23 23 23 23 24 23 24 26 26 29 29 28 30 29 27 25 23 23 23 26 26 27 29 29 29 29 28 26 24
3 3 3 2 3 4 5 7 8 14 16 25 26 25 23 25 23 23 24 23 25 24 24 25 25 27 29 29 28 28 27 25 22 23 24 28 26 27 29 29 29 28 28 25 24
3 3 2 3 4 4 4 5 10 13 18 19 21 22 24 25 25 24 24 24 25 25 24 25 26 29 29 30 30 28 26 28 26 27 26 27 28 29 29 29 29 28 27 24 23
2 2 3 4 4 4 4 5 11 14 16 17 17 21 20 25 25 25 24 26 25 26 27 26 26 29 29 30 30 29 29 25 26 23 22 25 27 27 27 28 28 28 26 24 23
2 2 5 4 5 3 4 7 10 11 14 15 16 17 18 19 23 26 25 26 27 27 27 27 27 28 30 29 27 27 28 27 26 26 24 23 26 29 28 28 27 27 26 23 22
2 3 5 5 3 2 4 8 9 11 11 13 15 16 16 18 18 20 26 27 29 28 26 27 27 26 28 30 29 28 27 27 25 24 26 26 26 29 29 29 28 26 25 23 22
2 4 4 3 4 4 7 8 9 11 11 12 13 14 15 16 16 20 23 28 29 28 27 27 25 25 27 29 29 27 28 28 27 26 25 25 26 28 29 29 28 26 25 23 23
2 4 5 3 4 6 7 8 8 9 12 12 10 12 11 13 17 18 22 26 29 29 26 25 25 25 26 27 28 26 27 28 27 25 25 26 27 28 28 28 28 27 25 24 23
3 6 6 6 6 5 5 7 8 6 10 12 11 11 12 13 15 18 16 15 19 27 25 25 24 26 27 28 28 27 27 27 27 27 26 26 27 28 28 28 28 27 26 25 24
2 4 5 6 7 7 5 7 9 10 10 10 9 12 12 11 14 13 14 15 15 16 26 25 24 26 26 28 29 27 28 27 28 28 27 27 27 29 30 29 29 27 26 26 25
3 3 3 5 7 6 7 8 8 9 10 11 11 11 11 11 14 14 14 15 16 16 17 25 25 24 24 27 28 26 28 28 28 28 28 26 27 29 29 29 29 27 26 26 26
Height
1520 1519 1518 1516 1517 1517 1515 1512 1513 1511 1508 1509 1508 1506 1502 1502 1502 1499 1493 1497 1501 1503 1504 1505 1505 1508 1509 1507 1505 1504 1503 1499 1490 1481 1473 1471 1470 1470 1472 1474 1478 1479 1482 1486 1487
1513 1513 1512 1512 1511 1510 1510 1509 1510 1507 1506 1506 1504 1502 1499 1499 1496 1489 1490 1494 1496 1497 1499 1504 1501 1505 1505 1502 1500 1498 1497 1490 1482 1474 1473 1472 1473 1474 1473 1470 1470 1473 1477 1480 1483
1507 1507 1506 1507 1507 1506 1505 1505 1505 1504 1504 1503 1500 1498 1497 1497 1494 1484 1483 1485 1488 1491 1494 1499 1500 1499 1499 1497 1494 1490 1488 1483 1480 1477 1475 1474 1473 1473 1468 1468 1468 1472 1474 1476 1480
1504 1502 1501 1501 1500 1500 1500 1499 1498 1499 1499 1498 1496 1494 1494 1496 1492 1479 1481 1483 1483 1487 1491 1492 1495 1493 1488 1487 1488 1486 1478 1476 1475 1475 1475 1474 1471 1469 1467 1467 1468 1469 1472 1474 1475
1499 1498 1497 1497 1496 1494 1494 1494 1494 1493 1493 1493 1491 1489 1491 1490 1478 1481 1480 1480 1480 1482 1485 1487 1487 1485 1480 1478 1481 1477 1472 1470 1470 1473 1475 1469 1466 1465 1464 1465 1466 1468 1470 1472 1473
1495 1493 1492 1490 1489 1489 1489 1489 1488 1488 1488 1487 1485 1486 1487 1481 1475 1477 1478 1477 1478 1478 1479 1482 1483 1480 1478 1475 1472 1470 1467 1465 1468 1469 1465 1462 1460 1463 1462 1464 1465 1467 1469 1470 1470
1490 1489 1487 1485 1483 1482 1482 1481 1481 1481 1480 1481 1481 1480 1478 1464 1468 1471 1474 1474 1474 1475 1475 1477 1480 1479 1474 1470 1469 1466 1465 1461 1459 1459 1458 1459 1457 1457 1460 1460 1463 1462 1464 1466 1468
1486 1484 1483 1481 1479 1477 1475 1474 1474 1475 1475 1477 1476 1476 1464 1460 1462 1463 1466 1468 1471 1473 1473 1474 1476 1475 1472 1470 1466 1464 1462 1463 1452 1451 1449 1452 1460 1452 1455 1454 1457 1456 1458 1460 1463
1483 1481 1479 1478 1476 1474 1471 1469 1470 1470 1471 1472 1473 1472 1458 1452 1448 1451 1459 1462 1466 1467 1468 1470 1471 1469 1472 1470 1467 1460 1465 1459 1449 1441 1438 1438 1449 1448 1450 1449 1448 1450 1451 1453 1456
1480 1478 1476 1473 1472 1469 1468 1466 1466 1465 1466 1468 1469 1474 1453 1441 1440 1444 1450 1456 1460 1462 1464 1466 1464 1463 1461 1464 1464 1462 1455 1450 1448 1434 1428 1435 1440 1440 1442 1442 1443 1443 1443 1444 1449
1478 1476 1474 1471 1468 1466 1465 1466 1467 1463 1460 1448 1442 1434 1431 1435 1438 1440 1443 1449 1454 1456 1456 1458 1460 1453 1450 1448 1450 1447 1443 1440 1428 1420 1436 1436 1435 1433 1434 1437 1436 1436 1436 1439 1443
1476 1473 1470 1468 1466 1464 1463 1465 1458 1462 1450 1441 1436 1432 1430 1433 1433 1433 1437 1441 1445 1445 1449 1453 1446 1443 1442 1443 1445 1444 1443 1438 1427 1421 1425 1426 1428 1427 1430 1430 1431 1430 1431 1433 1438
1473 1471 1468 1466 1463 1458 1458 1456 1457 1460 1450 1429 1423 1421 1423 1429 1424 1424 1429 1430 1431 1440 1437 1436 1430 1438 1434 1434 1438 1438 1439 1437 1434 1425 1422 1425 1431 1428 1423 1420 1420 1422 1425 1430 1436
1470 1468 1466 1465 1464 1459 1457 1456 1458 1461 1447 1408 1399 1393 1409 1420 1409 1416 1417 1424 1424 1426 1430 1424 1426 1423 1426 1425 1427 1435 1424 1424 1427 1435 1446 1424 1446 1426 1420 1416 1412 1416 1420 1426 1432
1466 1465 1464 1462 1460 1458 1459 1456 1458 1460 1443 1365 1367 1375 1380 1388 1389 1394 1407 1412 1413 1417 1423 1406 1413 1416 1413 1415 1415 1420 1413 1416 1422 1432 1435 1438 1444 1428 1414 1413 1408 1412 1416 1420 1427
1461 1460 1460 1459 1458 1457 1458 1458 1460 1453 1418 1362 1344 1362 1374 1381 1384 1379 1394 1403 1410 1410 1403 1405 1403 1401 1401 1399 1404 1407 1412 1416 1421 1428 1446 1434 1438 1432 1418 1409 1408 1410 1412 1418 1426
1455 1455 1455 1455 1456 1457 1457 1458 1451 1426 1372 1355 1346 1355 1365 1371 1379 1382 1386 1393 1393 1409 1399 1398 1396 1391 1392 1398 1395 1403 1415 1440 1454 1452 1449 1424 1429 1417 1402 1403 1405 1409 1413 1418 1426
1449 1449 1448 1449 1452 1455 1456 1456 1435 1391 1384 1336 1339 1350 1359 1360 1367 1373 1375 1384 1381 1385 1392 1398 1403 1383 1379 1384 1393 1398 1413 1431 1457 1452 1437 1404 1422 1410 1398 1401 1406 1411 1415 1420 1426
1444 1443 1442 1445 1448 1452 1453 1444 1416 1400 1375 1372 1359 1362 1347 1350 1349 1365 1361 1363 1363 1368 1384 1383 1382 1372 1373 1376 1382 1396 1410 1405 1421 1412 1421 1411 1403 1395 1392 1399 1404 1408 1414 1421 1428
1442 1440 1437 1440 1443 1447 1446 1434 1408 1401 1390 1385 1383 1360 1360 1339 1345 1348 1353 1345 1355 1359 1366 1365 1381 1361 1365 1370 1376 1383 1391 1419 1417 1443 1447 1422 1411 1406 1400 1399 1400 1407 1415 1421 1428
1441 1438 1429 1434 1440 1441 1431 1420 1407 1405 1398 1395 1386 1376 1368 1361 1341 1329 1340 1339 1342 1348 1359 1358 1361 1362 1356 1363 1376 1386 1389 1396 1405 1411 1431 1437 1416 1382 1390 1395 1402 1406 1413 1421 1427
1440 1437 1430 1432 1437 1433 1428 1418 1417 1409 1404 1399 1394 1385 1378 1364 1357 1346 1321 1325 1324 1337 1348 1345 1353 1366 1353 1349 1360 1372 1382 1388 1409 1418 1406 1407 1409 1383 1389 1394 1399 1406 1413 1421 1426
1438 1432 1429 1430 1428 1429 1421 1417 1413 1407 1402 1399 1395 1392 1383 1377 1372 1340 1324 1309 1319 1324 1331 1341 1357 1366 1358 1352 1355 1373 1374 1377 1386 1395 1407 1417 1408 1384 1388 1393 1398 1405 1413 1422 1425
1440 1432 1426 1428 1426 1424 1418 1411 1408 1406 1397 1397 1404 1397 1395 1386 1368 1351 1331 1311 1306 1311 1322 1333 1342 1354 1358 1349 1353 1370 1369 1370 1381 1399 1403 1398 1392 1384 1390 1394 1397 1400 1407 1417 1421
1438 1425 1423 1420 1422 1422 1424 1416 1407 1412 1397 1393 1394 1391 1390 1382 1369 1352 1354 1347 1316 1303 1314 1326 1346 1340 1341 1338 1342 1354 1365 1368 1373 1379 1393 1392 1389 1381 1383 1390 1392 1396 1406 1412 1419
1438 1432 1426 1421 1418 1416 1416 1408 1399 1396 1395 1390 1393 1385 1386 1384 1376 1375 1372 1364 1349 1327 1308 1318 1341 1340 1344 1337 1333 1348 1352 1360 1362 1368 1379 1381 1383 1375 1377 1381 1385 1393 1401 1409 1415
1435 1433 1432 1422 1417 1415 1408 1405 1399 1399 1389 1387 1384 1382 1382 1385 1379 1374 1373 1367 1359 1353 1339 1316 1324 1341 1349 1338 1336 1347 1341 1350 1355 1356 1364 1377 1374 1372 1373 1376 1381 1390 1397 1403 1409
Wind_Speed
23 23 23 23 24 23 24 22 23 22 21 21 20 19 19 21 20 20 28 21 17 19 16 17 20 19 21 24 23 21 14 16 21 22 15 17 14 12 13 8 16 8 5 4 7
24 24 25 25 26 25 25 24 24 24 22 22 21 21 21 23 25 28 29 22 19 20 26 23 24 23 27 26 25 20 14 24 22 20 15 20 16 21 20 16 15 14 13 12 11
24 25 26 26 27 28 28 27 26 24 23 22 21 20 20 19 22 17 16 21 26 27 24 23 24 25 29 28 29 26 20 22 27 25 21 22 20 21 20 11 11 7 3 17 13
23 24 25 25 25 27 28 29 28 27 25 23 21 20 18 12 7 4 3 4 11 23 24 28 30 32 28 24 31 24 32 30 31 23 23 19 29 22 16 13 13 5 5 11 16
24 24 24 24 25 25 26 27 28 28 27 25 21 20 18 14 24 16 21 17 8 23 28 30 36 34 27 27 29 27 25 32 24 18 29 31 26 20 16 14 9 7 10 11 12
23 24 25 25 23 25 26 25 25 25 26 24 23 21 19 23 27 22 22 20 11 17 26 29 33 33 33 28 27 29 30 26 23 32 31 24 20 20 26 13 6 9 11 15 15
25 25 23 23 25 22 23 25 24 23 22 21 23 22 21 34 15 12 15 25 16 16 20 26 29 32 29 26 32 29 25 23 24 24 23 25 20 16 25 16 21 15 17 15 13
24 24 23 22 23 24 21 22 22 22 20 18 19 18 19 18 28 33 21 19 23 26 22 17 22 31 32 27 27 23 26 21 22 22 29 25 19 16 22 20 22 19 16 19 19
21 20 22 25 25 25 25 22 18 19 19 17 17 18 22 12 26 36 29 28 20 19 17 22 23 26 25 21 20 20 18 25 23 22 23 22 18 17 22 20 20 16 17 17 15
20 19 20 22 24 27 28 23 10 17 15 11 16 12 24 26 28 25 32 31 31 21 22 24 24 18 18 17 21 20 23 21 22 22 21 14 18 16 23 24 16 25 22 18 16
21 19 19 21 22 21 23 15 8 6 20 21 17 24 10 4 18 26 22 30 30 28 20 24 15 22 25 26 26 24 23 24 22 16 9 15 21 18 15 19 23 23 16 14 16
23 21 19 18 20 20 18 11 12 11 14 33 40 35 31 20 13 19 20 29 32 27 22 21 24 26 26 23 27 27 25 23 20 18 14 14 15 13 15 19 26 24 20 15 18
22 22 18 18 20 20 18 25 21 17 12 27 37 43 41 33 31 24 30 31 26 27 26 26 25 26 27 24 26 25 24 20 22 17 16 15 14 14 21 22 18 17 9 8 20
22 20 18 15 13 11 16 13 11 8 7 15 28 35 43 36 37 37 31 32 23 29 30 30 26 28 28 26 25 24 25 24 17 14 12 14 13 13 15 16 11 6 12 15 22
21 19 16 14 12 8 9 5 2 5 7 9 38 13 34 43 12 43 42 37 27 27 23 32 28 30 27 28 27 23 23 18 13 15 14 15 12 14 14 17 7 1 8 20 24
20 19 16 15 16 17 12 8 4 7 14 9 12 27 25 34 39 15 48 41 35 25 27 29 30 29 30 25 25 24 20 11 12 12 12 15 15 14 15 4 4 1 6 19 21
19 18 18 14 18 9 9 11 8 14 9 12 23 26 26 27 32 31 31 30 26 26 28 26 33 30 29 29 22 23 12 11 10 11 11 17 15 15 9 10 1 2 5 18 20
19 18 19 18 15 13 10 8 15 21 35 13 19 24 26 24 28 34 27 26 30 31 15 23 22 33 27 29 24 21 17 11 11 11 16 20 16 3 5 6 2 1 4 15 18
16 17 19 18 15 16 11 11 21 26 17 31 31 27 24 26 22 30 34 30 31 32 24 22 29 23 32 23 22 19 21 18 17 15 12 8 10 13 12 7 9 11 11 17 16
13 11 19 15 16 16 7 15 22 29 36 34 27 17 22 24 28 31 31 30 31 33 26 25 17 28 30 25 22 22 19 16 12 15 13 11 14 4 11 6 10 8 8 17 17
10 5 18 18 19 11 6 17 26 35 36 26 29 28 26 25 22 29 32 30 32 32 31 26 17 21 24 26 22 19 18 16 14 14 11 9 9 3 11 9 9 8 14 17 20
6 3 2 19 9 3 9 18 24 27 39 29 25 27 27 24 21 22 30 32 28 30 34 32 11 16 27 27 26 23 23 17 10 15 10 10 3 11 8 8 7 14 16 19 24
5 12 3 16 5 9 15 21 26 25 27 27 23 22 25 25 12 15 24 30 36 32 30 27 21 13 19 22 23 23 24 19 13 9 14 11 10 10 11 9 7 17 21 21 23
6 3 7 11 9 10 16 21 20 25 26 24 19 25 21 23 19 16 21 15 29 29 38 22 19 22 16 20 22 26 24 23 19 13 14 14 14 13 12 9 10 18 27 24 25
5 6 4 5 7 9 13 21 21 15 24 18 20 22 22 20 22 16 18 20 25 26 25 21 26 21 23 23 27 25 25 26 24 19 18 16 16 11 14 12 12 19 24 25 24
7 5 11 16 13 13 10 14 21 19 20 17 17 19 18 22 17 20 23 20 11 20 20 20 20 21 24 27 26 28 27 26 25 23 22 20 17 13 10 25 16 22 20 20 25
10 11 9 9 11 10 11 10 7 14 16 17 17 18 17 20 21 24 30 27 26 22 23 17 17 22 19 23 23 24 26 26 21 21 22 20 15 13 11 11 8 23 18 20 24
Wind_Direction
284 284 284 285 283 283 285 285 287 287 288 287 287 289 290 288 285 281 264 254 238 230 222 220 208 217 221 229 233 241 253 258 269 282 304 300 311 321 302 214 269 237 213 178 167
283 280 281 281 282 282 281 282 282 284 285 286 287 289 291 295 294 279 264 250 216 227 228 214 209 218 228 231 239 234 245 256 267 284 309 311 307 295 301 257 235 210 201 205 182
284 282 280 277 276 278 279 278 279 280 280 282 284 283 289 300 307 275 261 247 241 233 233 221 227 217 229 238 234 237 246 254 269 290 300 297 296 285 278 290 276 1 330 179 188
282 282 278 276 275 274 273 274 277 277 277 278 278 277 279 283 264 246 304 276 229 227 223 221 227 229 224 234 243 250 250 253 257 273 297 276 276 272 282 284 276 280 273 193 204
296 287 281 280 275 272 271 271 272 273 275 277 279 280 277 246 242 252 292 293 272 215 216 219 227 224 236 236 241 252 256 257 272 281 265 262 260 280 274 275 285 277 243 234 229
293 296 297 295 284 277 271 269 268 268 270 273 275 274 272 254 250 256 255 262 247 225 217 217 234 232 241 245 252 254 258 264 263 254 259 266 263 261 265 255 255 263 260 248 233
291 287 291 296 297 288 279 273 268 268 266 265 265 267 259 244 235 241 255 231 231 214 218 224 227 243 245 247 255 261 263 266 255 254 257 270 260 245 273 238 268 252 243 244 261
298 294 286 290 294 294 286 278 272 268 264 263 260 255 254 251 256 239 236 243 236 231 234 234 233 244 255 264 258 254 260 257 259 252 251 237 252 260 250 246 264 248 253 249 235
308 302 287 283 285 290 293 281 275 268 262 257 252 238 262 267 234 242 229 229 226 218 230 237 237 235 239 249 257 248 252 253 258 247 251 233 236 238 261 280 250 240 250 256 235
313 308 310 292 287 286 289 294 266 267 258 250 238 227 251 238 235 233 225 224 227 231 237 239 228 238 222 225 234 235 240 238 252 259 260 218 241 242 238 250 259 269 250 250 228
324 305 302 307 297 289 291 319 263 235 215 209 207 205 226 255 227 223 215 216 221 228 223 224 221 225 224 223 237 244 251 246 253 258 220 236 238 242 256 276 285 291 283 255 203
317 320 305 299 305 290 277 252 232 331 287 238 242 237 243 253 244 218 206 204 207 220 215 215 221 224 231 226 231 243 252 261 273 283 286 284 264 279 286 271 265 265 266 263 172
309 310 309 301 307 291 263 251 264 300 275 261 237 237 232 234 236 226 209 206 207 211 214 218 222 222 233 223 229 234 243 254 261 273 270 277 270 264 263 269 267 260 235 250 157
307 303 307 297 306 306 280 279 253 264 275 252 217 241 225 224 238 222 211 207 213 211 215 226 225 222 225 229 220 232 232 239 254 274 270 281 289 279 294 272 257 240 213 180 166
302 299 295 268 270 285 351 40 188 210 263 233 213 212 201 197 181 211 211 202 210 210 211 225 219 230 220 221 231 233 239 242 236 247 259 268 269 276 289 281 233 169 228 185 172
295 289 286 268 271 271 286 305 241 225 235 241 218 185 190 200 215 212 199 214 213 221 223 229 229 227 233 228 220 233 237 247 257 260 249 250 259 270 266 320 101 298 235 149 165
287 281 268 262 253 267 263 262 210 226 235 248 172 175 195 194 207 226 190 202 205 210 226 217 227 231 232 229 215 224 213 224 225 237 252 250 246 245 280 297 330 313 133 153 159
285 271 264 252 250 255 261 239 225 231 240 286 205 182 200 208 203 213 186 203 208 208 210 219 219 222 216 229 218 198 208 219 226 223 245 236 242 261 98 92 79 83 78 130 155
290 275 260 242 230 239 235 226 226 244 267 242 281 283 203 214 210 203 219 201 203 207 214 208 227 208 228 208 218 194 212 215 250 251 284 281 220 216 171 166 198 197 146 138 157
295 275 259 241 208 218 219 238 252 245 262 289 291 311 305 219 222 194 203 217 209 205 219 235 215 225 208 210 204 219 192 208 232 244 266 279 277 224 138 199 150 127 145 140 158
285 279 293 216 205 200 218 218 239 255 272 278 273 299 304 301 278 209 209 220 203 207 210 226 243 210 207 204 192 205 222 199 225 225 226 243 257 276 149 128 121 155 142 152 163
244 253 273 179 177 251 241 243 266 274 281 290 290 280 291 304 309 296 214 215 207 208 200 214 225 238 209 199 197 206 216 192 214 219 253 253 242 98 110 137 135 115 142 160 165
267 273 249 193 215 233 251 256 259 265 272 267 277 275 283 308 308 286 266 209 217 193 208 202 224 227 224 205 184 212 218 215 210 223 213 234 243 160 159 157 160 145 144 167 169
292 288 203 208 243 276 269 272 281 284 273 261 277 279 286 282 278 279 292 283 204 217 202 188 220 222 219 197 178 195 216 215 212 216 225 237 248 145 152 172 204 157 154 171 174
257 269 303 284 275 276 310 274 275 280 291 235 259 272 264 275 285 292 351 338 315 218 190 186 211 218 229 229 193 197 207 221 216 212 222 224 244 202 181 187 218 154 159 170 180
284 311 320 297 291 276 244 267 267 264 268 294 292 244 258 270 281 312 321 325 294 335 195 188 208 222 211 231 212 205 205 216 224 213 214 230 230 234 200 191 194 154 163 180 182
260 277 294 291 291 293 265 280 283 303 283 251 265 277 297 289 288 290 310 293 287 288 296 186 192 204 223 217 236 207 202 206 219 224 209 216 223 238 230 211 176 144 163 195 185